Regional Weather Roundup
Issued by NWS

Home | Current Version | Previous Version | Text Only | Print | Product List | Glossary On
Versions: 1 2 3 4 5 6 7 8 9 10 11 12 13 14 15 16 17 18 19 20 21 22 23 24 25 26 27 28 29 30 31 32 33 34 35 36 37 38 39 40 41 42 43 44 45 46 47 48 49 50
000
ASUS43 KMKX 110220
RWRWI

WISCONSIN REGIONAL WEATHER ROUNDUP
NATIONAL WEATHER SERVICE MILWAUKEE/SULLIVAN WI
800 PM CST SUN DEC 10 2017

NOTE: "FAIR" INDICATES FEW OR NO CLOUDS BELOW 12,000 FEET WITH NO
SIGNIFICANT WEATHER AND/OR OBSTRUCTIONS TO VISIBILITY.

WIZ001-002-006>008-014>016-023>028-110300-
NORTHWEST WISCONSIN

CITY           SKY/WX    TMP DP  RH WIND       PRES   REMARKS
SUPERIOR ARPT  PTCLDY    10   8  90 CALM      30.03F
ASHLAND        CLOUDY     7   4  87 S5        30.02F WCI  -2
HAYWARD        CLOUDY    13  10  88 CALM      29.99F
SIREN          PTCLDY    13  11  91 CALM      30.02F
CUMBERLAND     CLOUDY    12  10  92 CALM      30.00F
RICE LAKE      FOG       13  12  95 CALM      30.03F VSB 1/2
CHETEK           N/A     13  12  95 CALM      30.02F
LADYSMITH      CLOUDY    15  12  89 CALM      30.03F
EAU CLAIRE     CLOUDY    17  15  92 CALM      30.04S
MENOMONIE      CLOUDY    19  17  90 E3        30.04S
NEW RICHMOND   CLOUDY    18  16  93 CALM      30.02F
OSCEOLA        CLOUDY    15  15  98 CALM      30.06S
$$

WIZ003>005-009-010-017-018-110300-
NORTH CENTRAL WISCONSIN

CITY           SKY/WX    TMP DP  RH WIND       PRES   REMARKS
MANITOWISH WTR FLURRIES  15  13  92 SW3       29.97S
ARBOR VITAE    FLURRIES  17  12  82 CALM      29.98S
WOODRUFF       FLURRIES  17  12  82 CALM      29.98S
RHINELANDER    CLOUDY    18  12  77 W6        29.99R WCI  10
EAGLE RIVER    CLOUDY    16   8  68 NW5       29.97S WCI   9
LAND O LAKES   FLURRIES  15  12  90 CALM      29.98S
PHILLIPS       CLOUDY    13  11  90 CALM      29.99F
TOMAHAWK       CLOUDY    17   9  73 NW3       30.02R
MEDFORD        CLOUDY    18  11  76 CALM      30.00S
MERRILL        CLOUDY    20  12  71 NW3       30.02R
$$

WIZ029-030-035-036-043>047-110300-
CENTRAL WISCONSIN

CITY           SKY/WX    TMP DP  RH WIND       PRES   REMARKS
WAUSAU         CLOUDY    21  12  68 VRB7      30.01S WCI  12
MOSINEE        CLOUDY    21  14  73 NW8       30.04R WCI  12
MARSHFIELD     CLOUDY    21  15  78 NW5       30.02R WCI  15
STEVENS POINT  CLOUDY    21  15  76 N3        30.04R
WAUPACA        CLOUDY    27  16  63 N6        30.06R WCI  20
WAUTOMA        CLOUDY    24  17  74 W7        30.06R WCI  16
WISC RAPIDS    CLOUDY    24  15  68 NW6       30.06R WCI  17
CAMP DOUGLAS   CLOUDY    24  18  76 CALM      30.06R
$$

WIZ011>013-019>022-031-037>040-048>050-110300-
NORTHEAST WISCONSIN

CITY           SKY/WX    TMP DP  RH WIND       PRES   REMARKS
ANTIGO         FLURRIES  19  14  82 NW7       30.00R WCI   9
SHAWANO        CLOUDY    25  14  61 N5        30.05R WCI  20
OCONTO         CLOUDY    21  10  62 N7        30.06R WCI  13
STURGEON BAY   CLOUDY    22  12  65 NW12      30.04R WCI  10
GREEN BAY      CLOUDY    25  16  68 N6        30.05R WCI  18
MANITOWOC      CLOUDY    24  16  71 NW6       30.05R WCI  17
APPLETON       CLOUDY    25  16  68 N6        30.02R WCI  18
CLINTONVILLE   CLOUDY    25  16  68 N3        30.05R
OSHKOSH        CLOUDY    25  18  74 W6        30.04R WCI  18
$$

WIZ032>034-041-042-053>061-110300-
SOUTHWEST WISCONSIN

CITY           SKY/WX    TMP DP  RH WIND       PRES   REMARKS
LA CROSSE      CLOUDY    28  20  71 CALM      30.07S
SPARTA         CLOUDY    24  20  85 CALM      30.06F
VIROQUA        CLOUDY    25  21  86 NW3       30.04F
BOSCOBEL       CLOUDY    29  19  66 N5        30.09S WCI  24
PRAIRIE DU CHI CLOUDY    26  19  76 CALM      30.09S
PLATTEVILLE    CLEAR     26  21  83 NW6       30.07S WCI  19
$$

WIZ056-057-062-063-064-067-068-110300-
SOUTH CENTRAL WISCONSIN

CITY           SKY/WX    TMP DP  RH WIND       PRES   REMARKS
REEDSBURG      CLOUDY    26  17  71 CALM      30.06S
BARABOO/DELLS  CLOUDY    26  18  71 NW3       30.05S
LONE ROCK      CLOUDY    27  21  78 W3        30.09R
MINERAL POINT  CLOUDY    28  23  80 NW3       30.06R
MADISON        CLOUDY    26  18  71 NW5       30.06R WCI  20
MIDDLETON      CLOUDY    28  20  72 W5        30.07R WCI  23
WATERTOWN      CLOUDY    26  19  76 NW7       30.06R WCI  18
MONROE         PTCLDY    27  19  74 NW3       30.05S
JANESVILLE     CLOUDY    28  19  69 NW8       30.06R WCI  20
$$

WIZ051-052-058>065-066-070>072-110300-
SOUTHEAST WISCONSIN

CITY           SKY/WX    TMP DP  RH WIND       PRES   REMARKS
MILWAUKEE      CLOUDY    28  18  66 NW7       30.06R WCI  21
WAUKESHA       CLOUDY    25  18  74 NW9       30.07R WCI  15
MILWAUKEE/TIMM CLOUDY    27  18  69 NW8       30.07R WCI  18
RACINE         CLOUDY    28  18  66 NW7       30.08R WCI  21
BURLINGTON     CLOUDY    35  31  87 NW7       30.07R WCI  29
KENOSHA        CLOUDY    28  19  69 NW7       30.06R WCI  21
FOND DU LAC    CLOUDY    26  16  65 NW6       30.05R WCI  19
SHEBOYGAN      CLOUDY    25  20  81 NW3       30.04R
WEST BEND      CLOUDY    27  21  80 W7        30.05R WCI  19
JUNEAU         CLOUDY    25  17  72 CALM      30.07R
$$

LSZ147-162-110300-
LAKE SUPERIOR

STATION/POSITION TIME  TEMP    WIND        PRES    WAVE
                       AIR SEA DIR/SP/G            HT/PER
                 (UTC) (F)     (DEG/KT/KT) (MB)    (FT/S)
DEVILS ISLAND    0200   21      40/  2/  3 1017.6F
SAXON HARBOR     0130   17                 1016.9S
$$

LMZ867-665-643>646-110300-
LAKE MICHIGAN

STATION/POSITION TIME  TEMP    WIND        PRES    WAVE
                       AIR SEA DIR/SP/G            HT/PER
                 (UTC) (F)     (DEG/KT/KT) (MB)    (FT/S)
NORTHPORT PIER   0140   21     330/ 14/ 19 1017.3R
KEWAUNEE LAKESHO 0154   24     340/  7/ 14 1016.7R
SHEBOYGAN LAKESH 0200   27     310/  7/  9 1018.5R
PORT WASHINGTON  0130   27     300/  4/  6 1019.0R
MILWAUKEE LAKESH 0200   28     300/  6/  9   N/A
KENOSHA   LAKESH 0200   28     340/ 13/ 16 1018.3
$$

TC  - TEMPERATURE IN CELSIUS
VSB - VISIBILITY IN STATUTE MILES
WCI - WIND CHILL INDEX
HX  - HEAT INDEX




USA.gov is the U.S. government's official web portal to all federal, state and local government web resources and services.